[[{"header":{"parameterUnit":"m.s-1","parameterCategory":1,"la1":30.2991,"la2":30.254,"lo1":-89.0895,"lo2":-89.0444,"dy":0.0017,"dx":0.0017,"nx":28,"ny":28,"refTime":"2024-02-19T09:00:00:Z","depth":0,"parameterNumber":2,"parameterNumberName":"U-component_of_WINDS"},"data":[0,0,0,0,0,0,0,0,0,0,0,0,0,0,0,0,0,0,0,0,0,0,0,0,0,0,0,0,0,0,0,0,0,0,0,0,0,0,0,0,0,0,0,0,0,0,0,0,0,0,0,0,0,0,0,0,0,0,-0.2772,-0.2772,0,-0.2807,-0.2807,-0.2807,-0.2778,-0.2777,-0.2776,-0.2774,-0.2812,-0.2814,-0.2816,0,0,0,0,0,0,0,0,0,0,0,0,0,-0.2681,-0.2683,-0.2772,-0.2772,-0.2773,-0.2806,-0.2807,-0.2807,-0.2778,-0.2777,-0.2775,-0.2774,-0.2811,-0.2813,-0.2816,0,0,0,0,0,0,0,0,0,0,0,0,0,-0.2719,-0.2683,-0.2772,-0.2762,-0.2762,-0.2806,-0.2807,-0.2808,-0.2779,-0.2777,-0.2775,-0.2773,-0.281,-0.2813,-0.2816,-0.2873,0,0,-0.2826,-0.2827,0,0,0,0,0,0,0,0,-0.2717,-0.2722,-0.2763,-0.2763,-0.2762,-0.2786,-0.2789,-0.283,-0.2779,-0.2772,-0.2774,-0.2772,-0.2805,-0.2808,-0.2819,-0.2875,-0.2876,-0.2826,-0.2828,-0.283,-0.2831,0,0,0,0,0,0,0,-0.2714,-0.272,-0.2786,-0.2764,-0.2763,-0.2756,-0.276,-0.2796,-0.2798,-0.2773,-0.2771,-0.2775,-0.2804,-0.2816,-0.2819,-0.2877,-0.2826,-0.2829,-0.2831,-0.2832,-0.298,-0.2982,0,0,0,0,0,0,-0.2712,-0.2718,-0.2785,-0.2787,-0.2734,-0.2759,-0.2763,-0.278,-0.2798,-0.2799,-0.2777,-0.2774,-0.2811,-0.2816,-0.2821,-0.2888,-0.283,-0.2833,-0.2835,-0.2978,-0.298,-0.2982,0,0,0,0,0,0,-0.271,-0.2718,-0.2783,-0.2752,-0.276,-0.2763,-0.2783,-0.2782,-0.2794,-0.2801,-0.2801,-0.2788,-0.281,-0.2816,-0.286,-0.2889,-0.2834,-0.2837,-0.2975,-0.2978,-0.2981,-0.3023,0,0,0,0,0,0,-0.2708,-0.2718,-0.274,-0.2753,-0.2761,-0.2822,-0.2784,-0.2784,-0.2799,-0.2795,-0.2812,-0.2813,-0.2809,-0.2855,-0.2863,-0.2892,-0.284,-0.2973,-0.2977,-0.298,-0.3019,-0.3027,-0.3034,0,0,0,0,0,-0.2705,-0.2751,-0.2741,-0.2749,-0.2788,-0.2824,-0.2829,-0.2823,-0.2801,-0.2823,-0.2828,-0.2812,-0.2884,-0.286,-0.2868,-0.2899,-0.2971,-0.2976,-0.298,-0.3016,-0.3026,-0.3034,0,0,0,0,0,0,-0.2742,-0.2752,-0.2742,-0.2793,-0.2807,-0.2819,-0.2846,-0.2834,-0.2855,-0.2851,-0.2843,-0.2847,-0.2893,-0.29,-0.2873,-0.2954,-0.2924,-0.293,-0.2948,-0.2958,-0.2965,-0.2963,-0.2842,0,0,0,0,0,-0.2756,-0.2783,-0.2791,-0.2835,-0.2843,-0.2843,-0.2858,-0.2852,-0.2868,-0.2874,-0.2881,-0.2897,-0.2923,-0.294,-0.2965,-0.3019,-0.3022,-0.3044,-0.3052,-0.3058,-0.3064,-0.3093,-0.3103,-0.2997,-0.2997,-0.2997,0,0,-0.2785,-0.2794,-0.2812,-0.2843,-0.2853,-0.2882,-0.2849,-0.2881,-0.2902,-0.2879,-0.2921,-0.2926,-0.2943,-0.2992,-0.3014,-0.3,-0.3093,-0.3063,-0.3068,-0.3071,-0.3099,-0.3109,-0.3118,-0.3,-0.3,-0.2999,0,0,-0.2854,-0.2863,-0.2901,-0.2912,-0.2928,-0.2928,-0.2937,-0.2949,-0.2952,-0.2993,-0.2977,-0.3001,-0.3046,-0.3059,-0.3071,-0.3142,-0.3129,-0.315,-0.319,-0.3218,-0.3226,-0.3234,-0.326,-0.3269,-0.3156,-0.3156,-0.3156,0,-0.2889,-0.2931,-0.2922,-0.2955,-0.2969,-0.2948,-0.2987,-0.2998,-0.3021,-0.3031,-0.3014,-0.3069,-0.3079,-0.3131,-0.3148,-0.3158,-0.3168,-0.315,-0.3226,-0.3233,-0.324,-0.3264,-0.3274,-0.3159,-0.3158,-0.3158,-0.3158,0,-0.2974,-0.3003,-0.3032,-0.3054,-0.3071,-0.3106,-0.3103,-0.3121,-0.3113,-0.3114,-0.3156,-0.3167,-0.3193,-0.3204,-0.3197,-0.3255,-0.3245,-0.3227,-0.3197,-0.3253,-0.3276,-0.3285,-0.3162,-0.3162,-0.3161,-0.316,0,0,-0.3069,-0.3084,-0.3095,-0.3105,-0.312,-0.3143,-0.3177,-0.3201,-0.3217,-0.3233,-0.3262,-0.3299,-0.3282,-0.3296,-0.329,-0.3314,-0.337,-0.3293,-0.3293,-0.3308,-0.3434,-0.3449,-0.346,-0.336,-0.3362,-0.3363,-0.3433,0,-0.3139,-0.3198,-0.319,-0.3247,-0.3274,-0.3253,-0.3283,-0.3295,-0.3297,-0.332,-0.3322,-0.3349,-0.3324,-0.3332,-0.3355,-0.3358,-0.3396,-0.3353,-0.3388,-0.3389,-0.3386,-0.3472,-0.3487,-0.3553,-0.3442,-0.3443,-0.3444,0,-0.3229,-0.3248,-0.3307,-0.3317,-0.3328,-0.3355,-0.3376,-0.3398,-0.3411,-0.3411,-0.3425,-0.3414,-0.3448,-0.3416,-0.3462,-0.3434,-0.3447,-0.345,-0.3453,-0.3457,-0.3421,-0.3479,-0.3573,-0.3584,-0.3458,-0.3457,-0.3456,0,-0.3294,-0.3333,-0.3374,-0.3382,-0.3395,-0.3414,-0.342,-0.3432,-0.3446,-0.3465,-0.3474,-0.3496,-0.3509,-0.3526,-0.3521,-0.3498,-0.3569,-0.3536,-0.357,-0.357,-0.3587,-0.3587,-0.3686,-0.3594,-0.3594,-0.3593,-0.3593,0,-0.3373,-0.3411,-0.3403,-0.3428,-0.3469,-0.3459,-0.35,-0.3503,-0.3513,-0.3538,-0.3521,-0.3545,-0.3537,-0.356,-0.3556,-0.3596,-0.3601,-0.3602,-0.3601,-0.3604,-0.3605,-0.3614,-0.361,-0.3596,-0.3595,-0.3595,-0.3595,0,-0.3453,-0.3449,-0.3492,-0.35,-0.3502,-0.3532,-0.3539,-0.3562,-0.3561,-0.3594,-0.3601,-0.36,-0.3626,-0.3623,-0.3653,-0.365,-0.3699,-0.3692,-0.3695,-0.3693,-0.3728,-0.3725,-0.3838,-0.3852,-0.375,-0.3751,-0.3751,0,-0.3505,-0.3533,-0.3543,-0.3559,-0.3566,-0.3591,-0.3606,-0.3596,-0.3612,-0.3628,-0.365,-0.3675,-0.3695,-0.3738,-0.374,-0.3763,-0.3757,-0.3794,-0.376,-0.3762,-0.3758,-0.3757,-0.376,-0.3802,-0.3803,-0.3804,-0.3805,0,-0.3598,-0.3594,-0.3616,-0.3636,-0.3654,-0.367,-0.3684,-0.3697,-0.3689,-0.3708,-0.3734,-0.3749,-0.3779,-0.3804,-0.3825,-0.3831,-0.3817,-0.3815,-0.3824,-0.3829,-0.383,-0.3831,-0.3715,-0.3813,-0.3812,-0.3812,-0.3811,-0.3811,-0.3666,-0.369,-0.3701,-0.3725,-0.3734,-0.3747,-0.3769,-0.3771,-0.3793,-0.3816,-0.3808,-0.3839,-0.385,-0.3876,-0.3884,-0.3908,-0.3894,-0.3907,-0.3911,-0.3914,-0.3919,-0.3825,-0.3912,-0.3911,-0.3911,-0.3911,-0.3911,0,-0.3759,-0.3764,-0.3786,-0.3806,-0.3825,-0.3808,-0.3822,-0.384,-0.3866,-0.3878,-0.3897,-0.3927,-0.3951,-0.3954,-0.3976,-0.3994,-0.3988,-0.4,-0.4,-0.4001,-0.393,-0.392,-0.4005,-0.4005,-0.4005,-0.4005,-0.4005,-0.4005,-0.381,-0.3849,-0.3846,-0.3889,-0.3894,-0.3923,-0.3933,-0.3945,-0.3954,-0.3988,-0.4007,-0.4009,-0.4017,-0.4039,-0.406,-0.406,-0.4069,-0.4085,-0.4082,-0.4016,-0.4007,-0.3998,-0.3989,-0.4086,-0.4087,-0.4152,-0.4153,-0.4153]},{"header":{"parameterUnit":"m.s-1","parameterCategory":1,"la1":30.2991,"la2":30.254,"lo1":-89.0895,"lo2":-89.0444,"dy":0.0017,"dx":0.0017,"nx":28,"ny":28,"refTime":"2024-02-19T09:00:00:Z","depth":0,"parameterNumber":3,"parameterNumberName":"V-component_of_WINDS"},"data":[0,0,0,0,0,0,0,0,0,0,0,0,0,0,0,0,0,0,0,0,0,0,0,0,0,0,0,0,0,0,0,0,0,0,0,0,0,0,0,0,0,0,0,0,0,0,0,0,0,0,0,0,0,0,0,0,0,0,-4.0473,-4.0474,0,-4.0579,-4.058,-4.0581,-4.0538,-4.0535,-4.0533,-4.053,-4.0634,-4.0639,-4.0644,0,0,0,0,0,0,0,0,0,0,0,0,0,-4.023,-4.0234,-4.0473,-4.0475,-4.0476,-4.0578,-4.058,-4.0581,-4.0538,-4.0535,-4.0532,-4.0529,-4.0632,-4.0638,-4.0644,0,0,0,0,0,0,0,0,0,0,0,0,0,-4.0335,-4.0236,-4.0473,-4.0467,-4.0467,-4.0578,-4.058,-4.0582,-4.0539,-4.0535,-4.0531,-4.0528,-4.063,-4.0638,-4.0645,-4.0767,0,0,-4.0668,-4.0672,0,0,0,0,0,0,0,0,-4.0329,-4.0344,-4.0466,-4.0467,-4.0468,-4.0541,-4.0532,-4.0644,-4.054,-4.0511,-4.053,-4.0526,-4.0606,-4.0615,-4.0643,-4.0772,-4.0776,-4.0669,-4.0674,-4.0677,-4.0679,0,0,0,0,0,0,0,-4.0322,-4.0339,-4.0515,-4.0468,-4.0469,-4.0457,-4.0468,-4.0553,-4.0578,-4.0514,-4.0511,-4.0524,-4.0605,-4.0636,-4.0645,-4.0778,-4.0669,-4.0676,-4.068,-4.0683,-4.1011,-4.1015,0,0,0,0,0,0,-4.0315,-4.0334,-4.0511,-4.0518,-4.0388,-4.0464,-4.0477,-4.0521,-4.0577,-4.0582,-4.0527,-4.0522,-4.0625,-4.0636,-4.0649,-4.0794,-4.0677,-4.0684,-4.0688,-4.1007,-4.1012,-4.1016,0,0,0,0,0,0,-4.031,-4.0331,-4.0507,-4.0425,-4.0447,-4.0473,-4.0523,-4.0526,-4.0556,-4.0587,-4.0591,-4.0554,-4.0622,-4.0638,-4.0738,-4.0797,-4.0688,-4.0694,-4.1002,-4.1008,-4.1014,-4.1087,0,0,0,0,0,0,-4.0303,-4.033,-4.0378,-4.0427,-4.0451,-4.0597,-4.0527,-4.053,-4.057,-4.0563,-4.0613,-4.0618,-4.062,-4.0727,-4.0746,-4.0806,-4.07,-4.0996,-4.1005,-4.1012,-4.108,-4.1095,-4.1109,0,0,0,0,0,-4.0295,-4.0394,-4.038,-4.0402,-4.0512,-4.06,-4.0614,-4.0616,-4.0575,-4.0622,-4.0642,-4.0616,-4.0788,-4.0737,-4.0758,-4.0822,-4.0993,-4.1002,-4.1011,-4.1073,-4.1092,-4.1108,0,0,0,0,0,0,-4.035,-4.04,-4.0386,-4.0504,-4.0548,-4.0593,-4.0653,-4.0636,-4.0692,-4.0684,-4.0682,-4.0694,-4.0797,-4.0819,-4.0762,-4.0942,-4.0884,-4.0898,-4.0924,-4.0942,-4.0956,-4.0948,-4.0707,0,0,0,0,0,-4.0376,-4.0445,-4.0484,-4.0585,-4.0608,-4.0627,-4.0665,-4.0663,-4.0708,-4.0726,-4.0754,-4.0797,-4.0861,-4.0903,-4.0963,-4.1083,-4.1092,-4.1136,-4.1151,-4.1162,-4.1174,-4.1238,-4.1257,-4.1046,-4.1046,-4.1046,0,0,-4.043,-4.0466,-4.051,-4.0597,-4.0631,-4.0701,-4.0643,-4.0719,-4.0771,-4.0737,-4.0834,-4.0855,-4.0904,-4.1014,-4.1064,-4.1036,-4.1235,-4.1174,-4.1183,-4.1189,-4.1249,-4.1269,-4.1287,-4.1053,-4.1052,-4.1051,0,0,-4.0565,-4.06,-4.0686,-4.0722,-4.0775,-4.0786,-4.0807,-4.0855,-4.0868,-4.0965,-4.0941,-4.1001,-4.1111,-4.1146,-4.1179,-4.1326,-4.1304,-4.1345,-4.142,-4.1482,-4.1499,-4.1514,-4.1565,-4.1584,-4.1357,-4.1357,-4.1357,0,-4.0625,-4.0731,-4.0733,-4.0812,-4.085,-4.0824,-4.0911,-4.0945,-4.1014,-4.104,-4.1008,-4.1145,-4.1176,-4.1293,-4.1329,-4.1356,-4.1379,-4.1339,-4.1497,-4.1512,-4.1525,-4.1574,-4.1594,-4.1362,-4.1361,-4.1361,-4.136,0,-4.0802,-4.0876,-4.094,-4.1009,-4.1054,-4.1136,-4.1149,-4.1194,-4.1187,-4.1202,-4.13,-4.1336,-4.1403,-4.1431,-4.1425,-4.1547,-4.1528,-4.1497,-4.1438,-4.155,-4.1596,-4.1615,-4.1368,-4.1367,-4.1365,-4.1364,0,0,-4.0975,-4.1043,-4.1067,-4.1097,-4.1153,-4.1209,-4.129,-4.1356,-4.1394,-4.1443,-4.1509,-4.1602,-4.1573,-4.161,-4.1608,-4.1662,-4.1775,-4.1624,-4.1625,-4.165,-4.1911,-4.1934,-4.1956,-4.1761,-4.1764,-4.1767,-4.1906,0,-4.1113,-4.1256,-4.1259,-4.1389,-4.1456,-4.1433,-4.1502,-4.1543,-4.1559,-4.1617,-4.1633,-4.1699,-4.1656,-4.1678,-4.1731,-4.175,-4.1827,-4.174,-4.1821,-4.1824,-4.1809,-4.198,-4.2005,-4.2134,-4.1924,-4.1927,-4.193,0,-4.1294,-4.1349,-4.1486,-4.1532,-4.156,-4.1623,-4.1683,-4.174,-4.1785,-4.1792,-4.1833,-4.1822,-4.1902,-4.1842,-4.1951,-4.1892,-4.1925,-4.1939,-4.1944,-4.1951,-4.1883,-4.1991,-4.2175,-4.2195,-4.1958,-4.1956,-4.1954,0,-4.1405,-4.1513,-4.1609,-4.1636,-4.1692,-4.1736,-4.1761,-4.1803,-4.1842,-4.1895,-4.192,-4.198,-4.2013,-4.206,-4.2065,-4.202,-4.2174,-4.2114,-4.2181,-4.2181,-4.2215,-4.2212,-4.2407,-4.2237,-4.2237,-4.2236,-4.2236,0,-4.1558,-4.1643,-4.166,-4.1719,-4.1812,-4.1814,-4.1906,-4.1927,-4.1964,-4.2026,-4.2008,-4.2065,-4.2069,-4.2128,-4.2132,-4.2221,-4.2236,-4.2243,-4.2243,-4.2245,-4.2244,-4.2266,-4.2256,-4.2242,-4.224,-4.2239,-4.2239,0,-4.1698,-4.1713,-4.1816,-4.186,-4.1873,-4.194,-4.1977,-4.2033,-4.2046,-4.2124,-4.2142,-4.2163,-4.2231,-4.2241,-4.232,-4.2323,-4.243,-4.242,-4.2415,-4.2413,-4.2479,-4.2473,-4.2694,-4.2723,-4.2535,-4.2537,-4.2539,0,-4.1795,-4.186,-4.1911,-4.1952,-4.198,-4.2045,-4.2085,-4.2089,-4.2131,-4.2187,-4.2236,-4.2302,-4.2355,-4.2464,-4.2486,-4.2546,-4.2537,-4.2611,-4.2546,-4.2545,-4.2537,-4.2533,-4.2539,-4.2623,-4.2625,-4.2627,-4.2628,0,-4.1965,-4.1969,-4.2029,-4.2091,-4.214,-4.2189,-4.2235,-4.2268,-4.2278,-4.2326,-4.2396,-4.2438,-4.2519,-4.2584,-4.2644,-4.2667,-4.2649,-4.2648,-4.2667,-4.2669,-4.2663,-4.2666,-4.2448,-4.2643,-4.2642,-4.2641,-4.264,-4.2639,-4.2086,-4.2142,-4.2187,-4.2254,-4.2289,-4.2332,-4.2386,-4.2407,-4.2466,-4.2533,-4.2531,-4.2608,-4.2649,-4.2728,-4.2755,-4.2814,-4.279,-4.2817,-4.2823,-4.283,-4.2836,-4.2654,-4.2825,-4.2824,-4.2824,-4.2824,-4.2823,0,-4.2255,-4.2282,-4.2344,-4.2409,-4.2461,-4.2441,-4.249,-4.2535,-4.2603,-4.2644,-4.2697,-4.2777,-4.284,-4.2866,-4.2928,-4.2969,-4.2963,-4.2985,-4.2982,-4.2987,-4.2855,-4.2832,-4.299,-4.299,-4.299,-4.299,-4.299,-4.299,-4.2348,-4.2442,-4.2451,-4.2561,-4.2587,-4.2664,-4.2693,-4.2732,-4.2765,-4.2856,-4.2909,-4.2926,-4.2961,-4.3024,-4.3081,-4.3087,-4.311,-4.3136,-4.3138,-4.3014,-4.2997,-4.2981,-4.296,-4.3141,-4.3142,-4.3266,-4.3267,-4.3268]}]]